Total_Precipitation_Accumulation
2.34 2.20 2.43 3.03 3.69 3.89 3.80 4.26 4.46 3.13 2.80 4.82 4.77 2.77 1.07 0.66 0.19 0.09 0.10 0.22 0.44 0.43 0.41 0.56 0.74 0.59 0.49 0.45 0.63 0.38 0.19 0.13 0.14 0.17 0.03 0.01 0.02 0.01 0.08 0.61 0.47 0.62 0.54 0.27
2.65 2.57 2.87 3.39 3.85 3.73 4.06 5.11 4.40 3.80 4.42 5.15 2.95 1.30 0.61 0.35 0.22 0.16 0.24 0.25 0.29 0.25 0.27 0.46 0.29 0.31 0.16 0.14 0.65 0.65 0.30 0.25 0.35 0.66 0.49 0.07 0.06 0.02 0.11 0.27 0.59 0.42 0.54 0.12
2.59 2.59 2.81 3.09 3.86 3.61 4.22 5.42 5.09 4.88 5.52 4.51 1.99 1.55 1.13 0.83 0.65 0.45 0.53 0.50 0.33 0.45 0.39 0.35 0.25 0.12 0.09 0.06 0.30 0.60 0.52 0.50 0.23 0.33 0.32 0.21 0.18 0.03 0.10 0.44 0.69 0.17 0.09 0.01
2.76 2.41 2.48 3.06 3.43 3.43 4.08 4.84 3.72 3.18 4.31 3.63 2.67 2.47 2.35 1.53 1.37 1.33 1.10 1.23 0.98 1.07 1.12 0.67 0.52 0.37 0.32 0.18 0.21 0.49 0.88 1.15 0.35 0.08 0.06 0.22 0.20 0.08 0.08 0.37 0.21 0.38 0.10 0.01
2.88 3.03 2.97 2.97 3.37 3.59 4.01 3.56 2.73 2.51 2.46 2.33 2.46 2.69 2.50 1.53 1.42 1.54 1.31 1.49 1.39 1.46 1.77 1.48 1.22 1.06 0.95 0.78 0.57 0.70 1.15 1.56 0.76 0.48 0.11 0.15 0.25 0.06 0.07 0.10 0.04 0.08 0.05 0.06
2.48 2.64 2.75 3.12 3.59 3.92 3.69 2.91 2.25 2.44 2.14 1.91 2.37 2.43 1.62 1.16 1.17 1.38 1.01 1.06 1.14 0.95 0.92 0.96 0.92 0.91 0.75 0.81 0.84 1.08 1.70 1.88 1.75 1.21 0.28 0.48 0.57 0.09 0.04 0.03 0.06 0.12 0.35 0.48
2.25 2.61 2.57 2.57 3.28 3.22 2.63 2.35 2.21 2.56 2.36 1.49 1.60 1.34 1.11 0.87 0.82 1.20 0.70 0.77 1.04 0.80 0.49 0.55 0.52 0.50 0.41 0.39 0.32 0.52 1.14 1.40 2.24 1.67 1.14 1.90 0.32 0.02 0.00 0.03 0.08 0.07 0.11 0.06
2.41 2.24 2.20 2.44 3.00 3.48 2.25 1.97 2.33 3.01 2.51 1.21 0.97 0.96 1.02 0.80 0.83 1.19 0.88 0.55 0.51 0.36 0.64 1.25 1.07 0.74 0.75 0.48 0.27 0.29 0.53 1.54 2.70 2.16 1.66 0.90 0.18 0.03 0.02 0.08 0.11 0.05 0.04 0.01
2.86 2.91 2.63 2.40 2.64 3.42 2.97 2.20 2.12 3.12 3.03 1.38 0.81 0.90 1.00 1.25 1.44 1.39 0.84 0.43 0.36 0.52 1.15 1.89 1.60 0.83 0.49 0.47 0.30 0.24 0.51 1.29 3.16 3.06 2.43 1.10 0.21 0.07 0.02 0.08 0.19 0.02 0.04 0.04
2.41 2.10 2.12 2.14 2.24 2.66 3.03 2.52 1.75 3.26 3.63 1.31 0.66 0.98 1.15 1.19 1.44 1.54 1.00 0.88 0.90 1.14 1.98 2.31 1.44 0.71 0.45 0.52 0.28 0.32 0.66 1.26 2.63 2.47 3.13 1.44 0.31 0.08 0.10 0.49 0.30 0.01 0.02 0.06
2.68 2.53 2.03 1.82 1.91 2.62 3.21 2.74 1.60 2.64 3.25 1.45 0.59 0.72 0.97 1.03 1.23 1.55 1.33 1.67 1.80 1.89 2.57 1.94 1.14 0.92 0.61 0.54 0.47 0.35 0.40 0.62 0.90 1.33 2.36 1.08 0.15 0.07 0.22 0.28 0.06 0.03 0.02 0.06
2.59 2.69 2.39 2.30 2.22 2.57 3.36 2.99 1.94 2.18 3.30 2.48 0.80 0.54 0.71 0.96 1.17 1.65 1.90 1.89 1.24 1.48 1.93 1.79 1.16 0.98 0.81 0.49 0.50 0.31 0.58 0.49 0.43 0.42 0.36 0.13 0.11 0.14 0.13 0.09 0.06 0.01 0.03 0.02
2.09 2.60 2.61 2.63 2.92 2.99 3.46 2.42 2.13 2.79 3.62 2.30 1.04 0.55 0.38 0.55 0.70 0.93 1.91 1.78 1.31 1.35 1.27 1.68 1.72 1.52 0.85 0.70 0.59 0.33 0.25 0.33 0.57 0.50 0.28 0.08 0.05 0.10 0.06 0.04 0.05 0.03 0.07 0.07
1.90 2.04 2.47 2.60 3.02 3.27 3.60 2.89 2.21 2.66 3.38 2.61 1.09 0.36 0.26 0.26 0.29 0.54 0.94 1.18 1.24 1.53 1.88 2.66 2.53 1.68 0.80 0.52 0.29 0.29 0.20 0.14 0.19 0.38 0.37 0.19 0.16 0.10 0.05 0.03 0.00 0.00 0.02 0.02
2.33 2.29 2.27 2.74 2.93 2.97 2.91 2.41 2.19 2.01 2.87 3.00 1.09 0.47 0.33 0.19 0.19 0.34 0.51 0.88 1.55 2.08 2.80 3.19 2.10 1.14 1.08 0.95 0.70 0.54 0.31 0.32 0.22 0.16 0.10 0.21 0.13 0.13 0.12 0.12 0.07 0.04 0.02 0.01
2.53 2.26 2.61 3.00 3.66 3.99 3.52 4.11 2.97 1.84 2.07 4.10 2.39 0.95 0.42 0.26 0.19 0.36 0.53 0.90 1.57 2.47 2.68 2.35 1.72 0.96 1.26 1.80 0.86 0.35 0.38 0.40 0.40 0.32 0.21 0.21 0.16 0.13 0.17 0.21 0.15 0.13 0.09 0.04
2.35 2.37 2.67 3.09 3.95 4.46 3.52 2.30 1.95 1.95 2.62 4.56 3.40 1.83 0.65 0.57 0.64 0.69 0.94 0.97 1.69 2.01 2.42 1.94 1.28 0.99 2.00 2.32 0.83 0.29 0.30 0.33 0.39 0.48 0.52 0.45 0.44 0.40 0.33 0.27 0.31 0.31 0.31 0.24
2.64 2.94 2.99 3.65 4.86 4.99 3.63 1.66 1.24 1.84 3.86 4.11 3.62 1.94 0.82 0.97 1.22 1.08 1.16 1.46 1.93 2.20 1.85 1.00 0.63 0.82 1.54 1.32 0.33 0.31 0.33 0.35 0.31 0.38 0.42 0.43 0.50 0.50 0.48 0.42 0.37 0.39 0.46 0.51
3.01 4.02 5.18 6.53 6.31 4.76 3.14 2.20 2.32 2.48 3.61 3.68 2.30 1.14 0.91 0.94 1.19 1.25 1.30 1.79 2.08 1.84 1.45 0.58 0.65 0.90 0.88 0.36 0.30 0.32 0.36 0.48 0.55 0.61 0.53 0.50 0.41 0.35 0.38 0.40 0.40 0.34 0.44 0.45
4.30 6.46 7.27 6.54 4.60 2.64 2.50 4.58 5.56 5.65 4.56 2.86 1.50 0.87 0.94 1.10 1.03 1.22 1.35 1.47 1.25 1.39 0.67 0.54 0.95 0.43 0.25 0.31 0.43 0.49 0.53 0.65 0.76 0.88 0.85 0.71 0.54 0.35 0.38 0.44 0.49 0.41 0.44 0.45
6.16 6.36 4.63 3.41 3.37 3.07 4.55 5.25 4.26 3.13 2.12 1.16 0.76 0.71 0.71 0.65 0.95 1.09 1.37 1.73 1.20 1.21 0.74 0.69 0.61 0.52 0.79 0.69 0.63 0.61 0.55 0.53 0.60 0.71 0.91 0.96 0.80 0.74 0.55 0.51 0.51 0.55 0.53 0.49
3.61 3.10 3.18 3.75 3.82 4.70 4.66 3.59 1.84 0.92 0.48 0.45 0.83 0.88 0.70 0.77 0.90 1.38 1.45 1.40 1.27 1.12 1.07 1.38 0.69 0.84 0.55 0.64 0.82 0.63 0.53 0.62 0.57 0.64 0.80 0.77 0.72 0.79 0.78 0.63 0.55 0.52 0.57 0.64
3.87 4.93 5.28 4.78 4.77 4.03 2.60 1.40 0.78 0.43 0.49 0.66 0.74 0.87 1.01 1.22 1.60 1.99 1.46 1.45 0.88 0.52 0.86 0.85 0.66 0.44 0.48 0.63 0.62 0.56 0.65 0.90 0.82 0.65 0.74 0.81 0.81 0.79 0.85 0.80 0.60 0.54 0.50 0.52
5.54 5.41 4.94 3.27 2.86 1.23 0.71 0.53 0.44 0.34 0.33 0.36 0.48 0.72 1.06 1.34 1.87 2.08 1.75 1.16 0.83 1.03 0.86 0.60 0.40 0.40 0.46 0.45 0.46 0.47 0.47 0.64 0.81 0.85 0.92 0.97 1.06 1.07 0.99 0.97 0.90 0.78 0.61 0.53
5.52 4.39 2.83 1.73 0.78 0.65 0.66 0.64 0.45 0.38 0.51 0.69 0.96 1.34 1.21 1.35 2.45 1.88 1.26 1.17 1.08 0.94 0.61 0.41 0.31 0.33 0.36 0.34 0.33 0.38 0.46 0.59 0.63 0.60 0.70 0.79 0.91 1.05 0.89 0.80 0.75 0.64 0.58 0.52
4.89 3.35 1.38 0.48 0.33 0.46 0.55 0.62 0.67 0.67 0.83 1.22 1.95 2.36 2.07 1.62 1.61 1.44 0.95 0.87 0.75 0.66 0.45 0.37 0.34 0.29 0.31 0.28 0.29 0.36 0.51 0.53 0.67 0.79 0.58 0.55 0.70 0.68 0.57 0.51 0.55 0.58 0.55 0.54
4.47 1.83 0.47 0.37 0.47 0.70 0.71 0.81 1.03 1.20 1.59 2.19 2.75 2.67 1.66 1.65 1.28 0.81 0.52 0.63 0.55 0.51 0.44 0.37 0.36 0.38 0.42 0.35 0.30 0.33 0.43 0.44 0.60 0.83 0.66 0.65 0.84 0.87 0.74 0.58 0.48 0.45 0.51 0.62